SCP
0 0 0 0 0 0 0 0 0 0 0 0 0 0 0 0 0 0 0 0 0 0 0 0 0 0 0 0 0 0 0 0 0 0 0 0 0 0 0 0 0 0 0
0 0 0 0 0 0 0 0 0 0 0 0 0 0 0 0 0 0 0 0 0 0 0 0 0 0 0 -0 0 0 0 0 0 0 0 0 0 0 0 0 0 0 0
0 0 0 0 0 0 0 0 0 0 0 0 0 0 0 0 0 0 0 0 0 0 0 0 0 0 0 0 0 0 0 0 0 0 0 0 0 0 0 0 0 0 0
0 0 0 0 0 0 0 0 0 0 0 0 0 0 0 0 0 0 0 0 0 0 0 0 0 0 0 0 0 0 0 0 0 0 0 0 0 0 0 0 0 0 0
0 0 0 0 0 0 0 0 0 0 0 0 0 0 0 0 0 0 0 0 0 0 0 0 0 0 0 0 0 0 0 0 0 0 0 0 0 0 0 0 0 0 0
0 0 0 0 0 0 0 0 0 0 0 0 0 0 0 0 0 0 0 0 0 0 0 0 0 0 0 0 0 0 0 0 0 0 0 0 0 0 0 0 0 0 0
0 0 0 0 0 0 0 0 0 0 0 0 0 0 0 0 0 0 0 0 0 0 0 0 0 0 0 0 0 0 0 0 0 0 0 0 0 0 0 0 0 0 0
0 0 0 0 0 0 0 0 0 0 0 0 0 0 0 0 0 0 0 0 0 0 0 0 0 0 0 0 0 0 0 0 0 0 0 0 0 0 0 0 0 0 0
0 0 0 0 0 0 0 0 0 0 0 0 0 0 0 0 0 0 0 0 0 0 0 0 0 0 0 0 0 0 0 0 0 0 0 0 0 0 0 0 0 0 0
0 0 0 0 0 0 0 0 0 0 0 0 0 0 0 0 0 -0 0 0 0 0 0 0 0 0 0 0 0 0 0 0 0 0 0 0 0 0 0 0 0 0 0
0 0 0 0 0 0 0 0 0 0 0 0 0 0 0 0 0 0 0 -0 0 0 0 0 0 0 0 0 0 0 0 0 0 0 0 0 0 0 0 0 0 0 0
0 0 0 0 0 0 0 0 0 0 0 0 0 0 0 0 0 0 0 0 0 0 0 0 0 0 0 0 0 0 0 0 0 0 0 0 0 0 0 0 0 0 0
0 0 0 0 0 0 0 0 0 0 0 0 0 0 0 0 0 0 0 0 0 0 0 0 0 0 0 0 0 0 0 0 0 0 0 0 0 0 0 0 0 0 0
0 0 0 0 0 0 0 0 0 0 0 0 0 0 0 0 0 0 0 0 0 0 0 0 -0 0 0 0 0 0 0 0 0 0 0 0 0 0 0 0 0 0 0
0 0 0 0 0 0 0 0 0 0 0 0 0 0 0 0 0 0 0 0 0 0 0 -0 -0 -0 0 0 0 0 0 0 0 0 0 0 0 0 0 0 0 0 0
0 0 0 0 0 0 0 0 0 0 0 0 0 0 0 0 0 0 0 0 0 0 0 0 0 0 0 0 0 0 0 0 0 0 0 0 0 0 0 0 0 0 0
0 0 0 0 -0 -0 -0 -0 -0 -0 -0 -0 0 0 0 0 0 0 0 0 0 0 0 0 0 0 -0 -0 0 0 0 0 0 0 0 0 0 0 0 0 0 0 0
0 0 0 0 0 0 -0 -0 -0 -0 -0 -0 -0 -0 -0 0 0 0 0 0 0 0 0 0 0 0 0 0 -0 0 0 0 0 0 0 0 0 0 0 0 0 0 0
0 0 0 0 0 -0 -0 -0 -0 -0 -0 -0 -0 -0 -0 -0 -0 0 0 0 0 0 0 0 0 0 0 -0 0 0 0 0 0 0 0 0 0 0 0 0 0 0 0
0 0 0 0 -0 -0 -0 -0 -0 -0 0 0 0 0 0 0 -0 -0 0 0 0 0 0 0 0 -0 0 -0 -0 -0 -0 0 0 0 0 0 0 0 0 0 0 0 0
0 0 0 0 0 -0 -0 0 0 0 0 0 0 0 0 0 0 0 0 0 0 0 0 0 0 0 -0 0 0 -0 -0 -0 -0 0 0 0 0 0 0 0 0 0 0
0 0 0 0 0 0 0 0 0 0 0 0 0 0 0 0 0 0 0 0 0 0 0 0 0 0 0 0 0 0 0 -0 -0 -0 -0 0 0 0 0 0 0 0 0
0 0 0 0 0 0 0 0 0 0 0 0 0 0 0 0 0 0 0 0 0 0 0 0 0 0 0 0 0 0 0 0 0 0 -0 -0 0 0 0 0 0 0 0
0 0 0 0 0 0 0 0 0 0 0 0 0 0 0 0 0 0 0 0 0 0 0 0 0 0 0 0 0 0 0 0 0 0 0 0 -0 -0 0 0 0 0 0
0 0 0 0 0 0 0 0 0 0 0 0 0 0 0 0 0 0 0 0 0 0 0 0 0 0 0 0 0 0 0 0 0 0 0 0 0 0 -0 0 0 0 0
0 0 0 0 0 0 0 0 0 0 0 0 0 0 0 0 0 0 0 0 0 0 0 0 0 0 0 0 0 0 0 0 0 0 0 0 0 0 0 0 0 0 0
Wind_Speed_500mb
38 39 40 39 38 39 41 34 32 30 29 31 33 32 31 29 27 25 23 22 21 20 19 19 21 22 22 24 24 26 25 26 25 27 25 26 28 36 37 34 35 34 34
40 39 42 37 40 42 42 40 36 33 33 34 35 37 36 35 34 32 29 27 24 23 22 22 22 24 24 20 20 28 25 22 22 26 26 25 30 26 27 30 36 40 40
31 26 36 40 38 41 42 44 40 38 36 38 37 39 41 42 40 39 37 34 32 29 27 26 26 26 23 20 22 24 31 28 27 21 21 24 29 24 25 29 34 35 35
28 30 32 34 36 38 40 42 40 39 35 38 42 43 44 45 45 44 43 41 39 36 34 32 30 30 27 25 24 28 37 35 34 23 20 18 20 22 22 22 24 26 28
21 23 24 27 34 38 37 34 36 38 38 40 43 46 47 48 48 48 48 48 47 43 40 39 37 34 31 29 22 32 33 35 25 28 24 24 21 21 19 20 21 23 23
19 21 20 24 25 26 28 41 33 38 38 40 44 46 48 51 53 53 53 55 54 49 47 45 43 40 38 35 36 34 33 35 32 40 30 30 29 28 27 25 23 23 24
20 20 19 20 21 20 25 22 28 29 27 33 41 48 49 52 53 54 56 58 57 56 55 53 50 47 44 42 42 44 41 32 40 41 38 31 29 29 31 31 30 29 26
18 18 22 27 28 29 33 33 35 31 32 32 37 45 40 51 32 21 28 32 47 59 62 59 57 54 51 48 48 50 54 44 40 37 43 41 33 28 27 29 31 31 32
14 19 24 27 28 28 33 38 42 42 39 37 38 31 16 14 47 53 41 47 38 26 37 51 57 59 56 55 54 54 56 56 52 48 43 45 47 33 31 32 33 34 34
10 11 12 15 17 19 25 30 31 36 45 47 45 38 37 42 35 46 56 62 63 58 57 43 37 35 40 51 57 59 59 61 61 60 57 51 56 52 38 36 35 36 36
18 18 17 15 13 15 17 18 17 19 24 30 37 44 48 47 46 52 71 68 70 71 69 68 65 61 57 53 47 47 57 63 67 67 64 62 63 66 56 44 40 39 38
22 24 25 27 28 28 28 27 27 26 25 25 27 31 36 43 51 53 62 78 81 85 80 80 80 76 74 68 63 60 56 56 63 67 68 68 68 71 72 58 50 44 42
26 29 30 29 30 31 32 32 32 31 32 34 34 33 33 38 43 48 57 69 79 86 87 83 78 74 75 77 78 73 68 63 59 63 66 68 71 77 77 69 63 55 50
31 31 33 34 34 35 36 36 37 37 35 35 35 36 38 37 39 41 51 57 71 75 78 69 68 69 64 63 67 72 78 72 63 57 62 68 71 75 79 76 71 66 58
31 34 36 39 40 42 45 46 47 48 47 45 45 46 46 42 42 43 43 46 53 54 72 66 57 58 59 63 61 63 68 71 75 72 62 63 71 75 78 77 73 69 64
36 40 41 43 45 48 51 54 58 58 61 59 58 60 58 55 55 52 50 51 50 55 68 73 76 73 71 70 64 64 65 71 74 72 71 66 68 75 77 77 74 73 70
38 41 45 50 55 61 67 71 71 73 74 75 73 71 71 67 68 65 63 61 62 62 75 87 79 74 74 74 70 66 63 64 68 77 79 75 68 71 78 80 79 79 76
44 49 54 61 66 71 75 79 81 82 87 89 87 85 83 79 78 74 72 74 74 72 77 87 87 85 80 75 76 74 69 67 67 67 72 85 83 75 74 80 83 82 81
49 55 62 68 73 79 84 87 91 92 92 89 89 92 91 88 89 86 82 81 83 82 83 89 96 89 91 86 80 80 78 74 70 67 67 74 86 94 87 82 82 84 83
58 64 69 74 81 85 85 84 85 86 87 89 90 91 93 94 91 86 85 85 84 85 86 91 96 88 89 92 88 86 88 80 78 69 67 70 76 84 98 99 93 89 88
65 68 72 77 80 81 81 83 85 87 90 93 93 93 92 89 82 64 66 75 76 77 77 74 76 68 65 74 85 85 87 85 86 80 77 72 77 83 89 98 102 97 95
70 73 78 82 82 79 79 81 84 85 86 88 92 91 89 87 87 69 63 61 65 71 74 73 77 75 75 59 62 73 85 79 81 76 61 78 63 71 85 90 93 99 102
72 76 79 81 81 80 82 82 83 82 82 82 82 82 81 74 73 73 74 67 71 72 69 75 87 94 83 72 66 73 75 80 92 88 78 92 83 87 76 76 78 86 95
72 75 79 79 80 78 79 81 79 76 77 75 73 72 71 71 63 57 60 64 65 66 65 65 74 86 83 81 72 78 85 87 101 100 83 97 87 98 89 79 74 78 77
73 76 78 79 79 78 75 76 75 72 74 74 71 67 64 65 60 53 57 65 70 71 63 58 63 68 71 74 74 82 92 84 91 91 80 91 104 97 89 92 84 75 74
72 74 77 77 76 76 70 70 67 64 70 71 68 71 70 60 56 56 62 70 78 77 76 73 69 69 71 75 68 72 78 86 95 95 79 82 95 84 78 84 83 82 78
Wind_Direction_500mb
262 266 267 272 276 287 294 291 284 280 272 265 263 263 264 265 265 266 269 273 278 283 286 292 297 303 306 301 299 303 295 296 285 280 278 268 254 247 251 249 239 228 228
266 270 264 272 279 287 296 298 286 282 278 273 269 269 270 271 271 271 271 273 276 282 289 293 296 304 307 301 289 304 305 308 296 289 290 280 274 272 266 261 253 244 233
276 279 263 265 279 287 295 296 291 285 286 286 281 276 274 274 274 276 276 277 279 282 285 287 288 291 294 288 260 282 302 312 309 291 281 278 282 287 274 269 265 259 252
266 267 267 276 281 285 292 292 295 287 288 295 295 289 281 276 274 273 272 274 275 275 277 280 283 285 288 288 259 265 282 300 305 307 285 279 289 289 290 281 279 278 269
266 271 282 284 279 283 287 284 300 292 289 294 298 294 289 283 279 274 271 269 269 271 273 276 277 277 276 274 248 255 269 283 283 302 286 284 276 273 274 272 271 273 274
283 278 275 275 276 273 280 283 278 281 286 291 295 295 290 287 285 281 276 272 271 269 268 268 269 271 272 269 259 247 260 278 276 290 296 286 284 279 275 271 270 272 275
298 293 295 297 304 300 286 296 285 280 288 300 304 294 292 293 287 283 280 278 274 270 267 265 266 265 265 265 262 254 251 260 268 278 286 285 285 281 278 277 273 267 263
328 322 309 310 308 307 298 300 295 306 298 299 306 313 314 300 301 316 288 283 279 271 267 266 266 265 264 263 262 259 257 256 257 265 278 283 282 278 276 277 275 273 270
313 303 296 293 300 310 311 312 312 311 307 300 297 296 312 294 301 290 276 292 299 292 282 279 276 272 269 265 262 261 261 262 255 252 257 267 276 277 277 278 278 274 270
4 348 328 313 305 302 290 288 292 300 301 298 290 290 289 290 295 300 287 281 283 277 287 287 287 286 278 273 270 266 264 264 264 261 259 253 260 273 274 275 274 272 268
42 37 27 14 353 342 335 324 312 305 297 293 298 294 286 286 288 290 297 295 284 281 279 278 276 274 274 277 277 277 272 268 267 265 264 259 257 265 272 273 273 269 265
26 26 23 18 16 11 8 3 351 335 322 310 296 288 289 290 287 286 288 292 294 291 285 281 279 277 275 272 270 270 272 274 271 266 263 260 258 258 266 269 271 269 262
10 11 8 3 1 358 353 351 349 346 345 340 329 315 300 290 285 287 286 286 289 292 292 292 290 284 278 275 272 269 267 269 273 270 265 260 257 256 262 264 266 268 266
2 359 357 354 352 347 344 341 337 334 333 328 324 320 318 318 308 297 293 293 292 289 292 296 299 297 292 282 274 270 267 264 267 272 270 263 258 257 259 261 261 262 263
351 348 346 343 342 340 336 333 328 325 322 319 316 312 310 308 304 305 303 298 292 291 295 295 295 299 299 297 292 283 274 266 264 263 267 265 262 259 258 259 258 257 259
339 337 336 337 337 334 329 326 323 320 316 313 309 305 302 300 298 296 295 294 292 289 284 290 296 296 297 294 291 285 280 275 266 261 260 264 264 263 262 261 259 257 256
332 331 332 331 330 328 325 323 320 317 313 310 307 303 300 298 293 290 288 287 287 288 287 289 292 292 292 295 296 292 285 276 271 266 259 257 260 263 261 260 259 257 255
327 327 327 326 324 323 321 319 316 314 311 310 308 305 302 300 295 292 288 286 284 282 284 287 288 290 289 288 291 293 292 287 279 269 265 258 254 254 260 261 260 258 256
321 322 321 321 320 319 318 316 314 313 312 310 308 306 305 303 299 297 293 288 285 284 282 285 287 285 287 289 288 287 288 288 287 283 272 264 258 253 253 257 261 260 257
319 319 319 319 319 317 316 315 312 310 308 306 304 302 301 300 300 298 294 292 288 285 284 284 284 288 286 286 288 288 288 287 286 285 278 272 264 258 252 252 256 260 262
315 316 316 316 316 316 316 314 312 310 308 305 302 299 296 293 289 287 287 287 288 287 287 288 286 289 287 287 284 288 288 291 287 283 280 271 267 263 255 251 252 254 256
314 316 318 318 318 318 317 315 313 311 308 306 305 303 301 297 293 288 281 277 275 279 280 281 281 280 281 283 285 286 284 285 285 285 286 282 275 267 265 259 254 251 253
312 315 316 318 318 319 319 318 316 312 310 310 308 307 305 302 300 295 289 283 274 267 267 272 274 273 278 276 280 275 277 279 277 275 279 279 277 272 267 264 261 257 253
311 315 317 318 317 320 320 319 316 313 311 311 310 308 306 305 305 302 301 296 292 289 287 281 277 282 279 280 277 271 271 271 269 269 268 268 269 273 273 269 264 258 256
313 316 317 317 318 321 321 319 317 316 313 313 313 313 315 312 305 299 298 298 295 292 289 282 277 277 276 275 273 274 271 271 268 264 259 261 265 267 270 273 268 261 258
312 315 316 318 320 322 322 320 317 316 314 315 321 320 316 306 303 297 293 293 294 296 299 301 298 297 296 292 283 267 266 268 263 267 259 253 260 258 262 271 271 268 261
Wind_Speed_850mb
38 39 40 39 38 39 41 34 32 30 29 31 33 32 31 29 27 25 23 22 21 20 19 19 21 22 22 24 24 26 25 26 25 27 25 26 28 36 37 34 35 34 34
40 39 42 37 40 42 42 40 36 33 33 34 35 37 36 35 34 32 29 27 24 23 22 22 22 24 24 20 20 28 25 22 22 26 26 25 30 26 27 30 36 40 40
31 26 36 40 38 41 42 44 40 38 36 38 37 39 41 42 40 39 37 34 32 29 27 26 26 26 23 20 22 24 31 28 27 21 21 24 29 24 25 29 34 35 35
28 30 32 34 36 38 40 42 40 39 35 38 42 43 44 45 45 44 43 41 39 36 34 32 30 30 27 25 24 28 37 35 34 23 20 18 20 22 22 22 24 26 28
21 23 24 27 34 38 37 34 36 38 38 40 43 46 47 48 48 48 48 48 47 43 40 39 37 34 31 29 22 32 33 35 25 28 24 24 21 21 19 20 21 23 23
19 21 20 24 25 26 28 41 33 38 38 40 44 46 48 51 53 53 53 55 54 49 47 45 43 40 38 35 36 34 33 35 32 40 30 30 29 28 27 25 23 23 24
20 20 19 20 21 20 25 22 28 29 27 33 41 48 49 52 53 54 56 58 57 56 55 53 50 47 44 42 42 44 41 32 40 41 38 31 29 29 31 31 30 29 26
18 18 22 27 28 29 33 33 35 31 32 32 37 45 40 51 32 21 28 32 47 59 62 59 57 54 51 48 48 50 54 44 40 37 43 41 33 28 27 29 31 31 32
14 19 24 27 28 28 33 38 42 42 39 37 38 31 16 14 47 53 41 47 38 26 37 51 57 59 56 55 54 54 56 56 52 48 43 45 47 33 31 32 33 34 34
10 11 12 15 17 19 25 30 31 36 45 47 45 38 37 42 35 46 56 62 63 58 57 43 37 35 40 51 57 59 59 61 61 60 57 51 56 52 38 36 35 36 36
18 18 17 15 13 15 17 18 17 19 24 30 37 44 48 47 46 52 71 68 70 71 69 68 65 61 57 53 47 47 57 63 67 67 64 62 63 66 56 44 40 39 38
22 24 25 27 28 28 28 27 27 26 25 25 27 31 36 43 51 53 62 78 81 85 80 80 80 76 74 68 63 60 56 56 63 67 68 68 68 71 72 58 50 44 42
26 29 30 29 30 31 32 32 32 31 32 34 34 33 33 38 43 48 57 69 79 86 87 83 78 74 75 77 78 73 68 63 59 63 66 68 71 77 77 69 63 55 50
31 31 33 34 34 35 36 36 37 37 35 35 35 36 38 37 39 41 51 57 71 75 78 69 68 69 64 63 67 72 78 72 63 57 62 68 71 75 79 76 71 66 58
31 34 36 39 40 42 45 46 47 48 47 45 45 46 46 42 42 43 43 46 53 54 72 66 57 58 59 63 61 63 68 71 75 72 62 63 71 75 78 77 73 69 64
36 40 41 43 45 48 51 54 58 58 61 59 58 60 58 55 55 52 50 51 50 55 68 73 76 73 71 70 64 64 65 71 74 72 71 66 68 75 77 77 74 73 70
38 41 45 50 55 61 67 71 71 73 74 75 73 71 71 67 68 65 63 61 62 62 75 87 79 74 74 74 70 66 63 64 68 77 79 75 68 71 78 80 79 79 76
44 49 54 61 66 71 75 79 81 82 87 89 87 85 83 79 78 74 72 74 74 72 77 87 87 85 80 75 76 74 69 67 67 67 72 85 83 75 74 80 83 82 81
49 55 62 68 73 79 84 87 91 92 92 89 89 92 91 88 89 86 82 81 83 82 83 89 96 89 91 86 80 80 78 74 70 67 67 74 86 94 87 82 82 84 83
58 64 69 74 81 85 85 84 85 86 87 89 90 91 93 94 91 86 85 85 84 85 86 91 96 88 89 92 88 86 88 80 78 69 67 70 76 84 98 99 93 89 88
65 68 72 77 80 81 81 83 85 87 90 93 93 93 92 89 82 64 66 75 76 77 77 74 76 68 65 74 85 85 87 85 86 80 77 72 77 83 89 98 102 97 95
70 73 78 82 82 79 79 81 84 85 86 88 92 91 89 87 87 69 63 61 65 71 74 73 77 75 75 59 62 73 85 79 81 76 61 78 63 71 85 90 93 99 102
72 76 79 81 81 80 82 82 83 82 82 82 82 82 81 74 73 73 74 67 71 72 69 75 87 94 83 72 66 73 75 80 92 88 78 92 83 87 76 76 78 86 95
72 75 79 79 80 78 79 81 79 76 77 75 73 72 71 71 63 57 60 64 65 66 65 65 74 86 83 81 72 78 85 87 101 100 83 97 87 98 89 79 74 78 77
73 76 78 79 79 78 75 76 75 72 74 74 71 67 64 65 60 53 57 65 70 71 63 58 63 68 71 74 74 82 92 84 91 91 80 91 104 97 89 92 84 75 74
72 74 77 77 76 76 70 70 67 64 70 71 68 71 70 60 56 56 62 70 78 77 76 73 69 69 71 75 68 72 78 86 95 95 79 82 95 84 78 84 83 82 78
Wind_Direction_850mb
262 266 267 272 276 287 294 291 284 280 272 265 263 263 264 265 265 266 269 273 278 283 286 292 297 303 306 301 299 303 295 296 285 280 278 268 254 247 251 249 239 228 228
266 270 264 272 279 287 296 298 286 282 278 273 269 269 270 271 271 271 271 273 276 282 289 293 296 304 307 301 289 304 305 308 296 289 290 280 274 272 266 261 253 244 233
276 279 263 265 279 287 295 296 291 285 286 286 281 276 274 274 274 276 276 277 279 282 285 287 288 291 294 288 260 282 302 312 309 291 281 278 282 287 274 269 265 259 252
266 267 267 276 281 285 292 292 295 287 288 295 295 289 281 276 274 273 272 274 275 275 277 280 283 285 288 288 259 265 282 300 305 307 285 279 289 289 290 281 279 278 269
266 271 282 284 279 283 287 284 300 292 289 294 298 294 289 283 279 274 271 269 269 271 273 276 277 277 276 274 248 255 269 283 283 302 286 284 276 273 274 272 271 273 274
283 278 275 275 276 273 280 283 278 281 286 291 295 295 290 287 285 281 276 272 271 269 268 268 269 271 272 269 259 247 260 278 276 290 296 286 284 279 275 271 270 272 275
298 293 295 297 304 300 286 296 285 280 288 300 304 294 292 293 287 283 280 278 274 270 267 265 266 265 265 265 262 254 251 260 268 278 286 285 285 281 278 277 273 267 263
328 322 309 310 308 307 298 300 295 306 298 299 306 313 314 300 301 316 288 283 279 271 267 266 266 265 264 263 262 259 257 256 257 265 278 283 282 278 276 277 275 273 270
313 303 296 293 300 310 311 312 312 311 307 300 297 296 312 294 301 290 276 292 299 292 282 279 276 272 269 265 262 261 261 262 255 252 257 267 276 277 277 278 278 274 270
4 348 328 313 305 302 290 288 292 300 301 298 290 290 289 290 295 300 287 281 283 277 287 287 287 286 278 273 270 266 264 264 264 261 259 253 260 273 274 275 274 272 268
42 37 27 14 353 342 335 324 312 305 297 293 298 294 286 286 288 290 297 295 284 281 279 278 276 274 274 277 277 277 272 268 267 265 264 259 257 265 272 273 273 269 265
26 26 23 18 16 11 8 3 351 335 322 310 296 288 289 290 287 286 288 292 294 291 285 281 279 277 275 272 270 270 272 274 271 266 263 260 258 258 266 269 271 269 262
10 11 8 3 1 358 353 351 349 346 345 340 329 315 300 290 285 287 286 286 289 292 292 292 290 284 278 275 272 269 267 269 273 270 265 260 257 256 262 264 266 268 266
2 359 357 354 352 347 344 341 337 334 333 328 324 320 318 318 308 297 293 293 292 289 292 296 299 297 292 282 274 270 267 264 267 272 270 263 258 257 259 261 261 262 263
351 348 346 343 342 340 336 333 328 325 322 319 316 312 310 308 304 305 303 298 292 291 295 295 295 299 299 297 292 283 274 266 264 263 267 265 262 259 258 259 258 257 259
339 337 336 337 337 334 329 326 323 320 316 313 309 305 302 300 298 296 295 294 292 289 284 290 296 296 297 294 291 285 280 275 266 261 260 264 264 263 262 261 259 257 256
332 331 332 331 330 328 325 323 320 317 313 310 307 303 300 298 293 290 288 287 287 288 287 289 292 292 292 295 296 292 285 276 271 266 259 257 260 263 261 260 259 257 255
327 327 327 326 324 323 321 319 316 314 311 310 308 305 302 300 295 292 288 286 284 282 284 287 288 290 289 288 291 293 292 287 279 269 265 258 254 254 260 261 260 258 256
321 322 321 321 320 319 318 316 314 313 312 310 308 306 305 303 299 297 293 288 285 284 282 285 287 285 287 289 288 287 288 288 287 283 272 264 258 253 253 257 261 260 257
319 319 319 319 319 317 316 315 312 310 308 306 304 302 301 300 300 298 294 292 288 285 284 284 284 288 286 286 288 288 288 287 286 285 278 272 264 258 252 252 256 260 262
315 316 316 316 316 316 316 314 312 310 308 305 302 299 296 293 289 287 287 287 288 287 287 288 286 289 287 287 284 288 288 291 287 283 280 271 267 263 255 251 252 254 256
314 316 318 318 318 318 317 315 313 311 308 306 305 303 301 297 293 288 281 277 275 279 280 281 281 280 281 283 285 286 284 285 285 285 286 282 275 267 265 259 254 251 253
312 315 316 318 318 319 319 318 316 312 310 310 308 307 305 302 300 295 289 283 274 267 267 272 274 273 278 276 280 275 277 279 277 275 279 279 277 272 267 264 261 257 253
311 315 317 318 317 320 320 319 316 313 311 311 310 308 306 305 305 302 301 296 292 289 287 281 277 282 279 280 277 271 271 271 269 269 268 268 269 273 273 269 264 258 256
313 316 317 317 318 321 321 319 317 316 313 313 313 313 315 312 305 299 298 298 295 292 289 282 277 277 276 275 273 274 271 271 268 264 259 261 265 267 270 273 268 261 258
312 315 316 318 320 322 322 320 317 316 314 315 321 320 316 306 303 297 293 293 294 296 299 301 298 297 296 292 283 267 266 268 263 267 259 253 260 258 262 271 271 268 261